Wells Aircraft, Inc. Hutchinson Municipal
(888) 496-5545
800 Airport Road
Hutchinson, KS 67501
(change)
Av Fuel Aviation Fuel Jet A: $4.58
100LL: $4.80
Prices current
Dec 14, 2018

Location

Wells Aircraft is located on the south end of the Hutchinson Municipal Airport (KHUT), in Hutchinson, Kansas.

Wells Aircraft, Inc.
800 Airport Road
Hutchinson, KS 67501
Map
Wells Location at KHUT

Quick Links


AirNav Information
(KHUT)

Hutchinson Weather

Hutchinson (KHUT)
Airport Diagram

Additional Resources

They say, "if you don't like the weather in Kansas, wait five minutes and it'll change." Be prepared with these aviation resources.

KHUT 161352Z 00000KT 10SM CLR M04/M07 A3022 RMK AO2 SLP244 T10441072                KHUT 161352Z 00000KT 10SM CLR M04/M07 A3022 RMK AO2 SLP244 T10441072                KHUT 161352Z 00000KT 10SM CLR M04/M07 A3022 RMK AO2 SLP244 T10441072                KHUT 161352Z 00000KT 10SM CLR M04/M07 A3022 RMK AO2 SLP244 T10441072                KHUT 161352Z 00000KT 10SM CLR M04/M07 A3022 RMK AO2 SLP244 T10441072                KHUT 161352Z 00000KT 10SM CLR M04/M07 A3022 RMK AO2 SLP244 T10441072                
 
 
Cirrus Aircraft